SCP
0 0 0 0 0 0 0 0 0 0 0 0 0 0 0 0 0 0 0 0 0 0 0 1 1 1 1 1 1 0 1 1 1 1 1 1 1 1 1 1 1 1 1 1 1 0 1 1 1
0 0 0 0 0 0 0 0 0 0 0 0 0 0 0 0 0 0 0 0 0 0 1 1 1 1 1 1 1 1 1 1 1 1 1 1 1 1 1 1 1 1 1 1 1 1 1 1 1
0 0 0 0 0 0 0 0 0 0 0 0 0 0 0 0 0 0 0 0 0 0 1 1 1 1 1 1 1 1 1 1 1 1 1 1 1 1 1 1 1 1 1 1 1 1 1 1 1
1 1 0 0 0 0 0 0 0 0 0 0 0 0 0 0 0 0 0 0 0 0 1 1 1 1 1 1 1 1 1 1 1 1 1 1 1 1 1 1 1 1 1 1 1 1 1 1 1
1 1 0 0 0 0 0 0 0 0 0 0 0 0 0 0 0 0 0 0 0 0 0 1 1 1 1 1 1 1 2 2 2 1 1 1 1 1 1 1 1 1 1 1 1 1 1 1 1
1 1 0 0 0 0 0 0 0 0 0 0 0 0 0 0 0 0 0 0 0 0 0 1 1 1 1 1 1 1 2 2 2 1 1 1 1 1 1 1 1 1 1 1 1 1 1 1 1
1 1 0 0 0 0 0 0 0 0 0 0 0 0 0 0 0 0 0 0 0 0 0 0 0 0 1 1 1 1 2 2 2 1 1 1 1 1 1 1 1 1 1 1 1 1 1 1 1
1 1 0 0 0 0 0 0 0 0 0 0 0 0 0 0 0 0 0 0 0 0 0 0 0 0 0 1 1 1 1 1 1 1 1 1 1 1 1 1 1 1 1 1 1 1 1 1 1
1 1 0 0 0 0 0 0 0 0 0 0 0 0 0 0 0 0 0 0 0 0 0 0 0 0 0 0 1 1 1 1 1 1 1 1 1 1 1 1 1 1 1 1 1 1 1 1 1
1 1 0 0 0 0 0 0 0 0 0 0 0 0 0 0 0 0 0 0 0 0 0 0 0 0 0 0 0 1 1 1 1 1 1 1 1 1 1 1 1 1 1 1 1 1 1 1 1
1 1 0 0 0 0 0 0 0 0 0 0 0 0 1 1 0 0 0 0 0 0 0 0 0 0 0 0 0 0 0 0 0 0 0 1 1 1 1 1 1 1 1 1 1 1 1 1 1
1 0 0 0 0 0 0 0 0 0 0 0 0 1 1 1 0 0 0 0 0 0 0 0 0 0 0 0 0 0 0 0 0 0 0 1 1 1 1 1 1 1 1 1 1 1 1 1 1
0 0 0 0 0 0 0 0 0 0 0 0 0 1 1 0 0 0 0 0 0 0 0 0 0 0 0 0 0 0 0 0 0 0 0 1 1 1 1 1 1 1 1 1 1 1 1 1 1
0 0 0 0 0 0 0 0 0 0 0 0 0 1 0 0 0 0 0 0 0 0 0 0 0 0 0 0 0 0 0 0 0 0 0 0 1 1 1 1 0 0 0 0 0 1 1 1 1
0 0 0 0 0 0 0 0 0 0 0 0 0 0 0 0 0 0 0 0 0 0 0 0 0 0 0 0 0 0 0 0 0 0 0 0 0 0 0 0 0 0 0 0 0 0 1 1 2
0 0 0 1 1 1 0 0 0 0 0 0 0 0 0 0 0 0 0 0 0 0 0 1 1 0 0 0 0 0 0 0 0 0 0 0 0 0 0 0 0 0 0 0 0 1 1 1 2
0 0 0 1 1 1 1 0 0 0 0 0 0 0 0 0 0 0 0 0 0 0 0 0 1 1 1 1 0 0 0 0 0 0 0 0 0 0 0 0 0 0 0 0 0 1 1 1 1
0 0 0 1 1 1 0 0 0 0 0 0 0 0 0 0 0 0 0 0 0 0 0 0 1 1 1 1 1 1 0 0 0 0 0 0 0 0 0 0 0 0 0 1 1 1 1 1 1
0 0 0 0 0 0 0 0 0 0 0 0 0 0 0 0 0 0 0 0 0 0 0 0 1 1 1 1 1 1 1 0 0 0 0 0 0 0 0 0 0 1 1 1 1 1 1 0 0
0 0 0 0 0 0 0 0 0 0 0 0 0 0 0 0 0 1 0 0 0 0 0 0 1 1 1 1 1 1 1 1 0 0 0 0 0 0 0 0 0 1 1 1 1 1 1 0 0
0 0 0 0 0 0 0 0 0 0 0 0 0 0 0 0 0 1 1 1 0 0 0 0 1 1 1 1 1 1 1 1 1 0 0 0 0 0 0 0 0 1 1 1 1 1 1 0 0
0 0 0 0 0 0 0 0 0 0 0 0 0 0 0 0 0 1 1 1 1 1 1 1 1 1 1 1 1 1 1 1 1 0 0 0 0 0 0 0 0 0 1 1 1 1 1 1 0
0 0 0 0 0 0 0 0 0 0 0 0 0 0 0 0 0 0 1 1 1 1 1 1 1 1 1 1 1 1 1 1 1 1 1 1 1 0 0 0 0 0 0 1 1 1 1 1 1
0 0 0 0 0 0 0 0 0 0 0 0 0 0 0 0 0 0 0 1 1 1 1 1 1 1 1 1 1 1 1 1 1 1 1 1 1 1 0 0 0 0 0 1 1 1 1 1 0
0 0 0 0 0 0 0 0 0 0 0 0 0 0 0 0 0 0 0 0 1 1 1 1 1 1 1 1 1 1 1 1 1 1 1 1 1 1 0 0 0 0 0 1 1 1 1 0 0
0 0 0 0 0 0 0 0 0 0 0 0 0 0 0 0 0 0 0 0 1 1 1 1 1 1 1 1 1 1 1 1 1 1 1 1 1 1 0 0 0 0 0 0 1 1 1 0 0
0 0 0 0 0 0 0 0 0 0 0 0 0 0 0 0 0 0 1 1 1 1 1 1 1 1 1 1 1 1 1 1 1 0 0 1 1 1 1 1 0 0 0 0 0 0 0 0 0
0 0 0 0 0 0 0 0 0 0 0 0 0 0 0 0 0 0 1 1 1 1 1 1 1 1 1 1 1 1 1 1 1 1 1 1 1 1 1 1 0 0 0 0 0 0 0 1 1
0 0 0 0 0 0 0 0 0 0 0 0 0 0 0 0 0 0 0 1 1 1 1 1 1 1 1 1 1 1 1 1 1 1 1 1 1 1 1 1 1 1 1 0 0 0 0 1 1
0 0 0 0 0 0 0 0 0 0 0 0 0 0 0 0 0 0 0 1 1 1 1 1 1 1 1 1 1 1 1 1 1 1 1 1 1 1 1 1 1 1 1 0 0 0 0 0 1
Wind_Speed
3 2 2 2 3 3 7 6 5 5 5 6 6 5 6 7 6 6 5 3 3 4 4 5 5 5 5 5 6 5 6 6 6 7 7 7 8 8 8 8 9 10 10 10 9 9 9 9 9
1 1 2 2 1 5 7 5 6 6 6 5 5 5 6 7 6 6 5 4 4 5 4 6 6 5 5 5 6 6 6 7 7 7 8 8 8 8 8 8 9 9 10 10 9 9 9 9 9
1 2 2 1 3 5 7 5 7 7 6 3 4 5 5 6 5 5 5 5 5 5 5 7 5 5 5 5 5 5 6 7 7 8 8 8 8 8 8 9 9 9 9 10 10 10 9 9 9
2 2 1 2 7 7 6 6 6 7 5 3 4 6 6 5 4 6 7 6 6 6 6 8 5 6 6 5 4 5 6 6 7 7 8 8 8 8 9 9 9 9 10 10 10 10 9 9 9
1 1 3 6 7 6 4 5 6 5 5 5 4 7 8 6 6 8 7 6 6 6 6 8 7 6 7 7 6 5 6 7 7 7 8 8 8 9 9 9 9 9 10 10 10 10 10 10 9
1 2 4 6 7 6 5 5 5 6 6 5 5 7 7 7 7 7 7 6 6 6 6 7 7 6 7 8 8 8 8 9 8 8 8 8 9 9 9 9 9 9 9 9 10 10 10 10 9
0 1 4 6 6 6 5 4 4 4 5 5 4 5 7 8 7 7 7 6 6 5 5 5 5 6 7 8 9 10 10 10 9 9 8 9 9 9 9 9 9 9 9 9 9 9 10 10 9
1 2 5 5 5 5 5 5 3 3 4 5 2 3 7 9 8 7 6 6 6 5 5 5 5 5 5 8 10 10 10 10 10 9 8 8 8 8 8 9 10 9 9 9 9 9 10 10 10
2 2 4 4 3 5 5 5 5 3 5 5 3 4 7 11 10 8 7 6 5 5 4 4 5 5 5 6 8 8 8 8 6 7 6 3 4 6 6 10 10 9 9 9 9 10 9 9 9
2 2 4 2 2 4 5 4 5 6 6 6 6 7 9 11 9 8 7 6 5 5 4 4 4 5 5 4 4 4 5 4 4 5 5 4 5 5 5 9 9 9 8 9 9 8 6 3 5
1 2 3 3 3 3 4 4 4 5 4 5 7 10 10 10 8 7 6 5 5 4 4 4 4 4 4 4 3 3 3 3 4 4 5 4 4 3 4 3 5 5 5 5 6 4 4 5 4
2 2 2 2 3 3 3 4 4 3 2 4 6 10 11 10 8 7 6 5 5 4 4 4 3 3 4 4 4 3 3 3 3 3 4 3 3 3 4 3 3 3 3 4 4 3 5 6 6
3 2 2 2 3 3 4 4 3 3 2 5 7 9 10 9 8 7 6 5 5 5 4 4 3 3 4 4 3 3 3 3 3 3 3 4 3 3 4 3 3 4 3 3 3 4 5 5 6
2 2 2 2 4 4 4 3 3 2 4 7 8 8 8 8 7 7 6 5 5 5 5 5 4 4 3 4 3 3 3 3 3 3 3 4 3 3 3 4 3 3 3 3 3 5 4 4 5
3 3 3 3 3 3 3 4 2 2 5 6 7 7 7 7 7 6 6 5 5 5 5 5 4 4 3 3 3 3 2 3 2 2 3 4 3 3 3 3 3 3 3 4 3 5 4 4 4
4 4 3 3 2 2 5 2 3 3 6 6 6 6 7 7 7 6 5 5 5 5 5 5 4 4 4 3 3 2 2 2 2 2 2 3 3 3 3 2 3 3 3 3 3 3 3 4 4
5 4 2 3 2 2 4 1 2 2 5 6 6 7 7 7 7 6 6 5 5 6 6 6 5 5 4 3 3 2 2 2 2 2 2 2 2 2 2 2 2 3 2 2 3 3 3 4 4
3 3 2 1 1 3 3 2 1 2 4 5 6 6 7 7 7 6 6 5 5 6 6 6 6 5 4 3 2 2 2 2 2 1 1 1 1 2 2 2 2 3 2 2 3 4 3 3 3
2 4 3 1 1 3 3 2 1 2 3 4 5 6 6 6 6 6 6 6 6 6 6 6 7 6 5 3 3 2 2 2 2 2 2 1 1 2 2 2 2 2 2 3 3 3 3 2 2
5 5 3 1 2 3 2 2 1 1 3 3 4 5 6 5 6 6 6 6 6 6 7 7 7 6 6 4 3 2 2 2 1 2 2 2 2 2 2 2 2 3 2 3 3 3 1 2 1
5 5 3 2 2 4 4 3 2 2 3 3 4 4 4 4 5 6 6 6 6 6 6 6 7 7 6 5 3 3 3 3 3 3 2 3 3 3 3 3 2 3 3 3 4 3 3 2 2
4 2 4 4 6 3 5 4 2 3 3 3 3 3 4 5 5 4 5 5 6 6 6 6 7 7 6 6 5 5 4 3 3 3 3 3 4 4 4 4 3 4 3 3 4 4 3 3 2
2 1 3 5 6 6 5 6 2 3 3 3 2 3 4 4 5 4 5 5 5 4 4 5 6 6 6 6 6 6 5 3 2 3 4 4 3 4 4 4 4 4 3 4 4 4 4 3 3
3 4 4 5 6 7 4 6 2 2 1 0 0 1 2 2 3 3 3 3 3 3 3 4 5 6 6 7 7 7 6 5 4 4 3 3 3 3 5 5 4 4 4 4 4 4 5 4 3
6 6 5 5 5 3 2 4 2 2 1 1 1 1 0 1 1 2 2 3 3 3 4 4 5 5 6 7 7 7 6 6 5 4 4 4 3 3 5 5 5 4 4 4 4 5 5 5 5
6 8 5 4 4 1 4 5 2 3 1 1 1 1 0 1 1 1 1 1 2 3 3 4 5 5 6 6 6 6 6 4 4 4 4 4 3 3 4 5 5 5 5 5 5 4 5 5 5
6 6 4 6 5 5 4 3 3 3 1 1 1 1 1 1 1 1 1 1 1 2 3 3 4 5 5 6 6 5 5 4 4 4 4 3 3 3 4 4 5 5 5 6 5 5 5 5 5
4 3 4 6 5 6 5 5 3 3 2 2 2 1 1 1 1 1 1 1 1 1 2 3 3 4 4 5 4 3 4 4 4 3 3 3 3 3 4 4 5 5 5 5 5 5 5 6 5
6 6 5 5 6 6 5 1 2 1 1 1 1 1 1 1 1 1 1 0 0 1 2 2 3 3 3 4 4 4 3 3 4 3 3 3 3 4 4 4 5 5 5 5 5 6 6 6 6
6 7 8 7 7 6 7 1 4 1 0 1 1 0 1 1 1 1 1 1 1 1 1 2 2 2 2 3 4 4 4 4 4 4 3 3 3 3 4 4 4 4 5 5 6 6 6 7 7
Wind_Direction
177 185 231 239 211 112 88 86 91 97 78 66 65 65 60 43 27 61 82 87 80 87 88 99 75 66 65 68 70 71 77 82 84 86 86 87 90 90 88 88 87 87 86 86 88 89 87 85 84
186 204 230 245 191 113 96 97 95 82 95 101 78 70 71 69 57 83 102 96 95 87 83 75 69 67 66 68 68 72 76 81 82 84 87 88 90 91 91 89 87 87 87 88 88 89 86 85 85
162 253 270 192 89 86 102 107 100 102 109 107 86 61 52 69 77 91 98 112 101 90 84 81 64 66 65 65 69 73 81 82 82 84 87 86 87 90 91 89 90 89 88 89 88 87 85 85 85
220 210 209 123 96 80 95 116 123 128 114 90 103 93 81 67 76 97 110 111 101 95 89 85 68 65 61 58 67 81 88 87 85 86 88 88 87 87 88 88 89 90 89 87 86 85 84 83 85
233 224 136 113 97 98 107 120 138 126 112 104 99 97 96 89 98 109 116 109 98 93 87 88 74 62 56 52 62 84 95 90 85 87 88 86 85 86 87 86 85 88 87 86 86 86 83 82 83
194 200 140 115 106 108 121 136 143 118 110 116 112 105 99 116 120 118 117 107 96 90 86 91 94 67 57 56 63 81 89 88 86 86 88 86 85 84 84 84 85 87 87 86 88 89 88 84 82
173 139 118 118 122 120 120 147 150 124 121 116 123 111 118 132 128 128 122 111 98 91 85 81 94 104 92 70 66 73 80 83 81 80 85 85 83 83 82 83 84 87 88 88 90 90 87 83 80
314 157 133 130 135 119 127 142 131 126 105 109 153 118 128 141 140 138 127 119 108 99 90 85 83 81 93 98 83 78 78 78 79 77 78 84 94 93 90 88 81 83 86 89 91 91 89 84 80
239 174 134 132 139 122 142 145 126 125 125 126 116 88 111 134 145 145 139 132 117 104 96 92 91 88 84 85 95 99 96 89 101 97 93 106 91 89 94 75 79 80 86 89 90 93 94 98 93
214 144 108 99 115 119 138 148 143 152 143 140 134 122 129 146 154 153 148 139 130 119 107 98 94 95 93 89 96 89 89 90 86 84 88 81 79 73 77 90 82 81 92 99 95 102 122 127 102
152 100 105 111 110 117 134 140 155 162 148 156 155 149 152 158 160 156 146 133 121 118 113 108 103 102 101 101 91 84 82 83 83 80 85 82 86 94 85 95 106 98 102 98 113 126 90 84 79
138 98 107 115 123 144 145 141 146 176 116 115 144 146 157 165 163 158 148 135 129 123 117 113 114 115 107 102 97 94 91 84 82 77 74 76 76 77 80 79 78 81 80 78 79 81 87 84 84
149 114 107 122 134 150 156 160 156 169 150 131 139 151 162 164 162 157 151 145 139 134 134 121 121 118 112 102 100 103 91 84 89 81 80 82 80 85 90 89 82 78 82 88 86 84 84 83 79
123 137 137 149 149 156 160 151 164 134 156 151 155 162 166 166 168 161 163 162 151 146 138 129 131 126 127 122 124 109 98 95 83 82 81 85 87 87 89 90 86 79 79 83 93 96 94 86 81
159 165 165 154 161 150 181 174 169 132 163 164 168 166 165 171 175 177 171 173 161 152 143 131 136 141 132 116 111 108 112 104 94 87 84 89 87 91 90 90 92 87 89 95 91 97 97 95 95
195 204 189 145 174 182 230 200 116 160 179 179 177 170 170 176 185 183 180 178 172 168 153 139 153 159 137 127 127 122 117 105 101 102 94 96 101 96 88 94 98 99 94 95 99 104 102 99 92
207 215 196 155 154 207 228 239 113 167 192 191 185 181 180 179 192 189 186 183 180 178 167 158 157 160 147 138 138 132 125 121 111 109 104 104 107 115 113 105 115 115 113 106 108 102 98 97 89
206 227 226 210 143 219 219 234 156 181 206 205 192 191 189 189 191 190 187 188 187 186 180 167 166 173 156 158 156 137 139 144 133 130 137 122 133 132 127 142 147 133 134 124 119 110 105 100 100
231 248 258 281 175 234 231 255 278 191 207 213 201 194 195 196 189 184 187 191 193 192 193 179 184 181 175 176 183 175 167 170 160 164 161 170 182 166 150 162 156 160 153 148 143 130 129 126 117
224 236 239 197 156 246 232 256 276 197 202 215 218 198 193 196 190 184 192 192 202 198 201 195 194 191 189 190 194 193 183 199 172 180 186 190 195 185 183 185 177 176 168 172 162 157 159 145 184
224 245 252 248 218 213 234 233 201 159 177 201 227 220 199 200 201 190 193 195 200 206 206 206 202 195 193 190 192 186 185 201 190 194 196 199 200 199 203 202 200 191 195 185 182 182 188 190 200
231 243 248 233 237 227 246 269 218 175 178 195 211 217 212 208 210 200 199 200 205 211 211 214 206 202 192 189 198 207 216 218 220 209 199 203 203 204 209 210 211 209 209 199 201 197 200 206 204
259 229 233 242 252 251 239 258 208 167 200 187 200 221 226 220 216 206 207 211 209 205 207 216 209 205 198 200 200 221 231 235 225 215 205 210 202 207 207 215 217 219 217 214 212 207 211 215 224
169 190 194 220 241 244 240 252 242 170 227 220 146 236 233 216 215 215 207 208 203 193 194 204 209 206 202 204 205 217 227 226 220 218 213 214 204 205 205 213 221 221 222 217 213 212 215 227 231
215 235 228 218 220 229 152 245 245 83 54 330 319 332 277 169 184 196 198 198 196 194 195 198 202 206 204 206 210 215 222 223 222 221 216 219 214 212 208 211 219 217 216 218 216 219 222 222 228
217 243 259 266 259 229 199 235 137 100 72 352 328 335 95 153 163 173 172 183 194 192 199 200 202 206 204 207 210 213 213 218 219 221 223 223 226 223 217 217 219 218 218 219 218 228 227 228 228
214 225 277 282 279 267 222 202 179 166 187 183 157 138 133 136 144 137 136 158 183 187 190 200 204 203 202 206 210 211 210 209 216 222 222 225 224 217 216 219 218 217 218 218 215 223 225 228 232
271 207 211 243 260 258 246 239 224 182 185 181 185 163 132 147 140 127 129 164 188 196 188 193 206 211 204 203 204 208 211 207 214 217 219 217 218 213 213 220 217 213 213 214 215 224 230 227 225
190 202 229 245 259 271 269 235 67 176 196 205 182 154 168 179 175 169 157 146 153 179 179 191 203 209 213 206 200 197 201 205 206 210 217 223 218 212 215 216 220 217 214 211 208 219 221 226 226
238 230 228 244 239 251 275 272 101 139 231 248 241 185 190 189 179 169 133 104 116 165 188 198 212 211 213 213 203 202 198 201 204 207 213 216 217 211 216 215 218 214 214 215 216 219 219 223 227